Time,TemperatureF,DewpointF,PressureIn,WindDirection,WindDirectionDegrees,WindSpeedMPH,WindSpeedGustMPH,Humidity,HourlyPrecipIn,Conditions,Clouds,dailyrainin,SoftwareType,DateUTC
2013-01-18 00:02:00,20.0,16.0,30.45,WNW,294,0.0,0.0,83,0.00,,,0.00,,2013-01-18 06:02:00,
2013-01-18 00:12:00,20.0,16.0,30.45,WNW,294,0.0,0.0,83,0.00,,,0.00,,2013-01-18 06:12:00,
2013-01-18 00:22:00,20.0,15.0,30.46,WNW,294,0.0,2.0,82,0.00,,,0.00,,2013-01-18 06:22:00,
2013-01-18 00:32:00,20.0,15.0,30.46,WNW,294,0.0,0.0,82,0.00,,,0.00,,2013-01-18 06:32:00,
2013-01-18 00:43:00,20.0,15.0,30.46,WNW,294,0.0,0.0,82,0.00,,,0.00,,2013-01-18 06:43:00,
2013-01-18 00:53:00,20.0,15.0,30.46,WNW,293,0.0,2.0,82,0.00,,,0.00,,2013-01-18 06:53:00,
2013-01-18 01:02:00,20.0,15.0,30.45,SW,223,0.0,2.0,82,0.00,,,0.00,,2013-01-18 07:02:00,
2013-01-18 01:12:00,20.0,15.0,30.45,SW,223,0.0,2.0,82,0.00,,,0.00,,2013-01-18 07:12:00,
2013-01-18 01:22:00,20.0,15.0,30.46,SW,235,0.0,3.0,82,0.00,,,0.00,,2013-01-18 07:22:00,
2013-01-18 01:32:00,20.0,15.0,30.47,SW,235,0.0,2.0,82,0.00,,,0.00,,2013-01-18 07:32:00,
2013-01-18 01:42:00,20.0,15.0,30.47,SW,235,0.0,2.0,82,0.00,,,0.00,,2013-01-18 07:42:00,
2013-01-18 01:52:00,20.0,16.0,30.47,WSW,238,0.0,4.0,83,0.00,,,0.00,,2013-01-18 07:52:00,
2013-01-18 02:02:00,20.0,16.0,30.46,WSW,239,0.0,2.0,83,0.00,,,0.00,,2013-01-18 08:02:00,
2013-01-18 02:12:00,20.0,16.0,30.46,WSW,239,0.0,2.0,83,0.00,,,0.00,,2013-01-18 08:12:00,
2013-01-18 02:22:00,21.0,17.0,30.46,WSW,239,0.0,2.0,83,0.00,,,0.00,,2013-01-18 08:22:00,
2013-01-18 02:32:00,22.0,18.0,30.47,WSW,244,0.0,3.0,83,0.00,,,0.00,,2013-01-18 08:32:00,
2013-01-18 02:42:00,22.0,18.0,30.47,WSW,244,0.0,3.0,83,0.00,,,0.00,,2013-01-18 08:42:00,
2013-01-18 02:53:00,22.0,18.0,30.47,WSW,243,0.0,3.0,83,0.00,,,0.00,,2013-01-18 08:53:00,
2013-01-18 03:02:00,23.0,19.0,30.47,SW,234,0.0,4.0,83,0.00,,,0.00,,2013-01-18 09:02:00,
2013-01-18 03:12:00,23.0,19.0,30.47,SW,234,0.0,4.0,83,0.00,,,0.00,,2013-01-18 09:12:00,
2013-01-18 03:22:00,23.0,19.0,30.47,SW,236,1.0,4.0,83,0.00,,,0.00,,2013-01-18 09:22:00,
2013-01-18 03:33:00,23.0,19.0,30.47,SSW,196,0.0,4.0,83,0.00,,,0.00,,2013-01-18 09:33:00,
2013-01-18 03:42:00,23.0,19.0,30.47,SSW,196,0.0,4.0,83,0.00,,,0.00,,2013-01-18 09:42:00,
2013-01-18 03:52:00,23.0,19.0,30.46,SSW,213,0.0,3.0,83,0.00,,,0.00,,2013-01-18 09:52:00,
2013-01-18 04:02:00,23.0,19.0,30.46,SW,235,0.0,4.0,83,0.00,,,0.00,,2013-01-18 10:02:00,
2013-01-18 04:12:00,23.0,19.0,30.46,SW,235,0.0,4.0,83,0.00,,,0.00,,2013-01-18 10:12:00,
2013-01-18 04:22:00,23.0,18.0,30.45,West,261,1.0,3.0,82,0.00,,,0.00,,2013-01-18 10:22:00,
2013-01-18 04:32:00,24.0,19.0,30.45,SSW,202,0.0,6.0,82,0.00,,,0.00,,2013-01-18 10:32:00,
2013-01-18 04:42:00,24.0,19.0,30.45,SSW,202,0.0,6.0,82,0.00,,,0.00,,2013-01-18 10:42:00,
2013-01-18 04:52:00,23.0,18.0,30.45,SSW,194,1.0,4.0,81,0.00,,,0.00,,2013-01-18 10:52:00,
2013-01-18 05:02:00,23.0,18.0,30.44,SSW,207,0.0,4.0,81,0.00,,,0.00,,2013-01-18 11:02:00,
2013-01-18 05:12:00,23.0,18.0,30.44,SSW,207,0.0,4.0,81,0.00,,,0.00,,2013-01-18 11:12:00,
2013-01-18 05:23:00,23.0,18.0,30.43,South,184,1.0,3.0,82,0.00,,,0.00,,2013-01-18 11:23:00,
2013-01-18 05:32:00,22.0,17.0,30.44,SW,221,0.0,3.0,82,0.00,,,0.00,,2013-01-18 11:32:00,
2013-01-18 05:42:00,22.0,17.0,30.44,SW,221,0.0,3.0,82,0.00,,,0.00,,2013-01-18 11:42:00,
2013-01-18 05:53:00,23.0,18.0,30.43,SSW,194,1.0,5.0,80,0.00,,,0.00,,2013-01-18 11:53:00,
2013-01-18 06:02:00,23.0,18.0,30.43,SSW,213,3.0,6.0,81,0.00,,,0.00,,2013-01-18 12:02:00,
2013-01-18 06:12:00,23.0,18.0,30.43,SSW,213,3.0,6.0,81,0.00,,,0.00,,2013-01-18 12:12:00,
2013-01-18 06:22:00,22.0,17.0,30.43,South,180,2.0,6.0,81,0.00,,,0.00,,2013-01-18 12:22:00,
2013-01-18 06:33:00,22.0,17.0,30.43,SSW,192,2.0,4.0,81,0.00,,,0.00,,2013-01-18 12:33:00,
2013-01-18 06:43:00,22.0,17.0,30.43,SSW,192,2.0,4.0,81,0.00,,,0.00,,2013-01-18 12:43:00,
2013-01-18 06:53:00,22.0,17.0,30.43,SSW,192,2.0,4.0,81,0.00,,,0.00,,2013-01-18 12:53:00,
2013-01-18 07:03:00,23.0,18.0,30.42,South,180,1.0,7.0,81,0.00,,,0.00,,2013-01-18 13:03:00,
2013-01-18 07:12:00,23.0,18.0,30.42,South,180,1.0,7.0,81,0.00,,,0.00,,2013-01-18 13:12:00,
2013-01-18 07:23:00,23.0,18.0,30.42,SW,233,1.0,6.0,81,0.00,,,0.00,,2013-01-18 13:23:00,
2013-01-18 07:33:00,23.0,18.0,30.42,SSW,193,1.0,6.0,81,0.00,,,0.00,,2013-01-18 13:33:00,
2013-01-18 07:43:00,23.0,18.0,30.42,SSW,193,1.0,6.0,81,0.00,,,0.00,,2013-01-18 13:43:00,
2013-01-18 07:53:00,24.0,19.0,30.42,South,180,1.0,5.0,81,0.00,,,0.00,,2013-01-18 13:53:00,
2013-01-18 08:03:00,24.0,19.0,30.41,SSW,207,3.0,8.0,80,0.00,,,0.00,,2013-01-18 14:03:00,
2013-01-18 08:12:00,24.0,19.0,30.41,SSW,207,3.0,8.0,80,0.00,,,0.00,,2013-01-18 14:12:00,
2013-01-18 08:23:00,24.0,19.0,30.41,SSW,207,3.0,8.0,80,0.00,,,0.00,,2013-01-18 14:23:00,
2013-01-18 08:33:00,27.0,21.0,30.40,SSW,205,6.0,10.0,77,0.00,,,0.00,,2013-01-18 14:33:00,
2013-01-18 08:42:00,27.0,21.0,30.40,SSW,205,6.0,10.0,77,0.00,,,0.00,,2013-01-18 14:42:00,
2013-01-18 08:53:00,28.0,21.0,30.41,SSW,195,5.0,11.0,76,0.00,,,0.00,,2013-01-18 14:53:00,
2013-01-18 09:03:00,29.0,22.0,30.41,SW,232,4.0,10.0,76,0.00,,,0.00,,2013-01-18 15:03:00,
2013-01-18 09:12:00,29.0,22.0,30.41,SW,232,4.0,10.0,76,0.00,,,0.00,,2013-01-18 15:12:00,
2013-01-18 09:23:00,29.0,22.0,30.41,South,184,6.0,13.0,75,0.00,,,0.00,,2013-01-18 15:23:00,
2013-01-18 09:33:00,30.0,22.0,30.40,SSE,162,6.0,13.0,73,0.00,,,0.00,,2013-01-18 15:33:00,
2013-01-18 09:43:00,30.0,22.0,30.40,SSE,162,6.0,13.0,73,0.00,,,0.00,,2013-01-18 15:43:00,
2013-01-18 09:53:00,31.0,23.0,30.40,West,259,7.0,14.0,72,0.00,,,0.00,,2013-01-18 15:53:00,
2013-01-18 10:03:00,32.0,24.0,30.40,South,171,7.0,13.0,71,0.00,,,0.00,,2013-01-18 16:03:00,
2013-01-18 10:12:00,32.0,24.0,30.40,South,171,7.0,13.0,71,0.00,,,0.00,,2013-01-18 16:12:00,
2013-01-18 10:23:00,33.0,24.0,30.39,SW,215,7.0,16.0,69,0.00,,,0.00,,2013-01-18 16:23:00,
2013-01-18 10:33:00,33.0,24.0,30.38,SSE,161,9.0,18.0,69,0.00,,,0.00,,2013-01-18 16:33:00,
2013-01-18 10:42:00,33.0,24.0,30.38,SSE,161,9.0,18.0,69,0.00,,,0.00,,2013-01-18 16:42:00,
2013-01-18 10:53:00,34.0,25.0,30.37,SW,236,8.0,18.0,68,0.00,,,0.00,,2013-01-18 16:53:00,
2013-01-18 11:03:00,34.0,25.0,30.35,SSE,157,9.0,19.0,68,0.00,,,0.00,,2013-01-18 17:03:00,
2013-01-18 11:13:00,34.0,25.0,30.35,SSE,157,9.0,19.0,68,0.00,,,0.00,,2013-01-18 17:13:00,
2013-01-18 11:23:00,35.0,25.0,30.34,South,175,11.0,19.0,67,0.00,,,0.00,,2013-01-18 17:23:00,
2013-01-18 11:33:00,35.0,25.0,30.32,South,182,8.0,20.0,67,0.00,,,0.00,,2013-01-18 17:33:00,
2013-01-18 11:42:00,35.0,25.0,30.32,South,182,8.0,20.0,67,0.00,,,0.00,,2013-01-18 17:42:00,
2013-01-18 11:53:00,36.0,26.0,30.31,South,182,8.0,19.0,67,0.00,,,0.00,,2013-01-18 17:53:00,
2013-01-18 12:03:00,37.0,26.0,30.29,South,186,9.0,22.0,64,0.00,,,0.00,,2013-01-18 18:03:00,
2013-01-18 12:13:00,37.0,26.0,30.29,South,186,9.0,22.0,64,0.00,,,0.00,,2013-01-18 18:13:00,
2013-01-18 12:23:00,37.0,26.0,30.27,South,171,10.0,22.0,63,0.00,,,0.00,,2013-01-18 18:23:00,
2013-01-18 12:33:00,38.0,27.0,30.26,SSE,159,13.0,22.0,63,0.00,,,0.00,,2013-01-18 18:33:00,
2013-01-18 12:43:00,38.0,27.0,30.26,SSE,159,13.0,22.0,63,0.00,,,0.00,,2013-01-18 18:43:00,
2013-01-18 12:53:00,39.0,27.0,30.25,SSW,201,9.0,18.0,63,0.00,,,0.00,,2013-01-18 18:53:00,
2013-01-18 13:03:00,39.0,27.0,30.23,South,188,12.0,21.0,63,0.00,,,0.00,,2013-01-18 19:03:00,
2013-01-18 13:12:00,39.0,27.0,30.23,South,188,12.0,21.0,63,0.00,,,0.00,,2013-01-18 19:12:00,
2013-01-18 13:23:00,39.0,28.0,30.22,SE,144,12.0,22.0,64,0.01,,,0.01,,2013-01-18 19:23:00,
2013-01-18 13:33:00,39.0,28.0,30.20,SSW,194,11.0,23.0,65,0.01,,,0.01,,2013-01-18 19:33:00,
2013-01-18 13:43:00,39.0,28.0,30.20,SSW,194,11.0,23.0,65,0.01,,,0.01,,2013-01-18 19:43:00,
2013-01-18 13:53:00,40.0,29.0,30.19,SSE,157,11.0,20.0,64,0.01,,,0.01,,2013-01-18 19:53:00,
2013-01-18 14:03:00,40.0,29.0,30.17,SW,223,12.0,21.0,65,0.01,,,0.01,,2013-01-18 20:03:00,
2013-01-18 14:12:00,40.0,29.0,30.17,SW,223,12.0,21.0,65,0.01,,,0.01,,2013-01-18 20:12:00,
2013-01-18 14:23:00,40.0,29.0,30.17,SW,223,12.0,21.0,65,0.01,,,0.01,,2013-01-18 20:23:00,
2013-01-18 14:33:00,40.0,29.0,30.15,South,177,13.0,22.0,65,0.00,,,0.01,,2013-01-18 20:33:00,
2013-01-18 14:42:00,40.0,29.0,30.15,South,177,13.0,22.0,65,0.00,,,0.01,,2013-01-18 20:42:00,
2013-01-18 14:53:00,40.0,30.0,30.14,SSW,198,13.0,25.0,66,0.00,,,0.01,,2013-01-18 20:53:00,
2013-01-18 15:03:00,40.0,30.0,30.13,South,186,12.0,24.0,67,0.01,,,0.02,,2013-01-18 21:03:00,
2013-01-18 15:13:00,40.0,30.0,30.13,South,186,12.0,24.0,67,0.01,,,0.02,,2013-01-18 21:13:00,
2013-01-18 15:23:00,41.0,31.0,30.12,South,172,13.0,23.0,67,0.01,,,0.02,,2013-01-18 21:23:00,
2013-01-18 15:33:00,41.0,31.0,30.11,South,174,10.0,21.0,68,0.01,,,0.02,,2013-01-18 21:33:00,
2013-01-18 15:42:00,41.0,31.0,30.11,South,174,10.0,21.0,68,0.01,,,0.02,,2013-01-18 21:42:00,
2013-01-18 15:53:00,41.0,31.0,30.10,SSW,213,12.0,22.0,68,0.01,,,0.02,,2013-01-18 21:53:00,
2013-01-18 16:03:00,40.0,30.0,30.09,South,188,15.0,25.0,68,0.00,,,0.02,,2013-01-18 22:03:00,
2013-01-18 16:12:00,40.0,30.0,30.09,South,188,15.0,25.0,68,0.00,,,0.02,,2013-01-18 22:12:00,
2013-01-18 16:23:00,40.0,31.0,30.09,South,180,11.0,19.0,70,0.00,,,0.02,,2013-01-18 22:23:00,
2013-01-18 16:32:00,39.0,30.0,30.08,WSW,248,11.0,17.0,71,0.00,,,0.02,,2013-01-18 22:32:00,
2013-01-18 16:42:00,39.0,30.0,30.08,WSW,248,11.0,17.0,71,0.00,,,0.02,,2013-01-18 22:42:00,
2013-01-18 16:53:00,39.0,30.0,30.08,South,180,12.0,24.0,71,0.00,,,0.02,,2013-01-18 22:53:00,
2013-01-18 17:03:00,39.0,30.0,30.08,SSE,159,13.0,22.0,71,0.00,,,0.02,,2013-01-18 23:03:00,
2013-01-18 17:12:00,39.0,30.0,30.08,SSE,159,13.0,22.0,71,0.00,,,0.02,,2013-01-18 23:12:00,
2013-01-18 17:22:00,38.0,29.0,30.07,South,188,12.0,22.0,71,0.00,,,0.02,,2013-01-18 23:22:00,
2013-01-18 17:33:00,38.0,30.0,30.07,SSE,165,11.0,21.0,72,0.00,,,0.02,,2013-01-18 23:33:00,
2013-01-18 17:43:00,38.0,30.0,30.07,SSE,165,11.0,21.0,72,0.00,,,0.02,,2013-01-18 23:43:00,
2013-01-18 17:53:00,37.0,29.0,30.07,South,173,12.0,22.0,72,0.00,,,0.02,,2013-01-18 23:53:00,
2013-01-18 18:02:00,37.0,29.0,30.06,South,190,12.0,21.0,72,0.00,,,0.02,,2013-01-19 00:02:00,
2013-01-18 18:12:00,37.0,29.0,30.06,South,190,12.0,21.0,72,0.00,,,0.02,,2013-01-19 00:12:00,
2013-01-18 18:22:00,37.0,29.0,30.06,South,178,13.0,22.0,73,0.00,,,0.02,,2013-01-19 00:22:00,
2013-01-18 18:33:00,37.0,29.0,30.06,South,169,11.0,22.0,72,0.00,,,0.02,,2013-01-19 00:33:00,
2013-01-18 18:43:00,37.0,29.0,30.06,South,169,11.0,22.0,72,0.00,,,0.02,,2013-01-19 00:43:00,
2013-01-18 18:53:00,37.0,29.0,30.06,SW,215,10.0,18.0,72,0.00,,,0.02,,2013-01-19 00:53:00,
2013-01-18 19:02:00,37.0,29.0,30.05,South,182,9.0,22.0,72,0.00,,,0.02,,2013-01-19 01:02:00,
2013-01-18 19:12:00,37.0,29.0,30.05,South,182,9.0,22.0,72,0.00,,,0.02,,2013-01-19 01:12:00,
2013-01-18 19:22:00,37.0,28.0,30.05,South,180,10.0,19.0,71,0.00,,,0.02,,2013-01-19 01:22:00,
2013-01-18 19:32:00,37.0,28.0,30.06,SSE,159,10.0,17.0,71,0.00,,,0.02,,2013-01-19 01:32:00,
2013-01-18 19:42:00,37.0,28.0,30.06,SSE,159,10.0,17.0,71,0.00,,,0.02,,2013-01-19 01:42:00,
2013-01-18 19:53:00,37.0,29.0,30.05,SSE,163,8.0,17.0,72,0.00,,,0.02,,2013-01-19 01:53:00,
2013-01-18 20:02:00,37.0,29.0,30.06,SSE,160,7.0,19.0,72,0.00,,,0.02,,2013-01-19 02:02:00,
2013-01-18 20:12:00,37.0,29.0,30.06,SSE,160,7.0,19.0,72,0.00,,,0.02,,2013-01-19 02:12:00,
2013-01-18 20:22:00,37.0,29.0,30.06,NNW,338,8.0,17.0,73,0.00,,,0.02,,2013-01-19 02:22:00,
2013-01-18 20:33:00,36.0,29.0,30.05,SSE,163,7.0,16.0,74,0.00,,,0.02,,2013-01-19 02:33:00,
2013-01-18 20:42:00,36.0,29.0,30.05,SSE,163,7.0,16.0,74,0.00,,,0.02,,2013-01-19 02:42:00,
2013-01-18 20:53:00,36.0,29.0,30.05,South,183,7.0,16.0,74,0.00,,,0.02,,2013-01-19 02:53:00,
2013-01-18 21:03:00,36.0,29.0,30.05,SW,217,8.0,20.0,75,0.00,,,0.02,,2013-01-19 03:03:00,
2013-01-18 21:12:00,36.0,29.0,30.05,SW,217,8.0,20.0,75,0.00,,,0.02,,2013-01-19 03:12:00,
2013-01-18 21:22:00,36.0,29.0,30.05,WNW,288,6.0,13.0,76,0.00,,,0.02,,2013-01-19 03:22:00,
2013-01-18 21:33:00,35.0,28.0,30.05,SW,216,6.0,13.0,76,0.00,,,0.02,,2013-01-19 03:33:00,
2013-01-18 21:43:00,35.0,28.0,30.05,SW,216,6.0,13.0,76,0.00,,,0.02,,2013-01-19 03:43:00,
2013-01-18 21:53:00,35.0,29.0,30.05,SW,223,5.0,15.0,77,0.00,,,0.02,,2013-01-19 03:53:00,
2013-01-18 22:02:00,35.0,29.0,30.05,SW,230,5.0,13.0,77,0.00,,,0.02,,2013-01-19 04:02:00,
2013-01-18 22:12:00,35.0,29.0,30.05,SW,230,5.0,13.0,77,0.00,,,0.02,,2013-01-19 04:12:00,
2013-01-18 22:22:00,35.0,29.0,30.04,SW,229,6.0,12.0,77,0.00,,,0.02,,2013-01-19 04:22:00,
2013-01-18 22:32:00,35.0,29.0,30.04,SSE,148,5.0,14.0,77,0.00,,,0.02,,2013-01-19 04:32:00,
2013-01-18 22:42:00,35.0,29.0,30.04,SSE,148,5.0,14.0,77,0.00,,,0.02,,2013-01-19 04:42:00,
2013-01-18 22:53:00,35.0,29.0,30.04,SW,231,6.0,13.0,78,0.00,,,0.02,,2013-01-19 04:53:00,
2013-01-18 23:03:00,35.0,29.0,30.04,SSW,210,6.0,16.0,77,0.00,,,0.02,,2013-01-19 05:03:00,
2013-01-18 23:12:00,35.0,29.0,30.04,SSW,210,6.0,16.0,77,0.00,,,0.02,,2013-01-19 05:12:00,
2013-01-18 23:23:00,35.0,29.0,30.04,SW,214,6.0,14.0,77,0.00,,,0.02,,2013-01-19 05:23:00,
2013-01-18 23:33:00,35.0,29.0,30.04,South,182,7.0,16.0,77,0.00,,,0.02,,2013-01-19 05:33:00,
2013-01-18 23:42:00,35.0,29.0,30.04,South,182,7.0,16.0,77,0.00,,,0.02,,2013-01-19 05:42:00,
2013-01-18 23:53:00,35.0,29.0,30.04,South,182,7.0,16.0,77,0.00,,,0.02,,2013-01-19 05:53:00,